| time (UTC) | temp F | wind direction | speed MPH | gust MPH | rain 1hr in | rain 24hr in | rain mn in | humidity % | barometer mb |
| 20260906225507 | 69 | 134 | 0.0 | 1.0 | 0.00 | 0.35 | 0.35 | 93 | 1011.6 |
| 20260906225007 | 69 | 134 | 0.0 | 1.0 | 0.00 | 0.35 | 0.35 | 93 | 1011.6 |
| 20260906224514 | 69 | 160 | 0.0 | 0.0 | 0.00 | 0.35 | 0.35 | 92 | 1011.6 |
| 20260906224009 | 69 | 172 | 0.0 | 0.0 | 0.00 | 0.35 | 0.35 | 92 | 1011.5 |
| 20260906223507 | 69 | 172 | 0.0 | 0.0 | 0.00 | 0.35 | 0.35 | 91 | 1011.6 |
| 20260906223007 | 70 | 172 | 0.0 | 0.0 | 0.00 | 0.35 | 0.35 | 90 | 1011.4 |
| 20260906222506 | 70 | 172 | 0.0 | 0.0 | 0.00 | 0.35 | 0.35 | 91 | 1011.2 |
| 20260906222005 | 70 | 172 | 0.0 | 1.0 | 0.00 | 0.35 | 0.35 | 92 | 1011.3 |
| 20260906221505 | 70 | 171 | 0.0 | 1.0 | 0.00 | 0.35 | 0.35 | 92 | 1011.4 |
| 20260906221005 | 70 | 165 | 0.0 | 0.0 | 0.00 | 0.35 | 0.35 | 92 | 1011.3 |
| 20260906220505 | 70 | 165 | 0.0 | 0.0 | 0.00 | 0.35 | 0.35 | 93 | 1011.6 |
| 20260906220004 | 70 | 165 | 0.0 | 0.0 | 0.00 | 0.35 | 0.35 | 92 | 1011.8 |
| 20260906215504 | 70 | 165 | 0.0 | 2.0 | 0.00 | 0.35 | 0.35 | 92 | 1011.9 |
| 20260906215004 | 70 | 165 | 0.0 | 3.0 | 0.00 | 0.35 | 0.35 | 92 | 1011.8 |
| 20260906214504 | 70 | 203 | 1.0 | 3.0 | 0.00 | 0.35 | 0.35 | 91 | 1011.8 |
| 20260906214003 | 70 | 169 | 0.0 | 0.0 | 0.00 | 0.35 | 0.35 | 91 | 1011.7 |
| 20260906213503 | 70 | 147 | 0.0 | 0.0 | 0.00 | 0.35 | 0.35 | 92 | 1011.8 |
| 20260906213002 | 70 | 146 | 0.0 | 2.0 | 0.00 | 0.35 | 0.35 | 92 | 1011.7 |
| 20260906212503 | 70 | 108 | 0.0 | 3.0 | 0.00 | 0.35 | 0.35 | 92 | 1011.7 |
| 20260906212003 | 70 | 165 | 0.0 | 6.0 | 0.00 | 0.35 | 0.35 | 92 | 1011.6 |
| 20260906211502 | 70 | 127 | 0.0 | 6.0 | 0.00 | 0.35 | 0.35 | 92 | 1011.7 |
| 20260906211002 | 70 | 173 | 0.0 | 2.0 | 0.00 | 0.35 | 0.35 | 94 | 1011.7 |
| 20260906210502 | 70 | 144 | 0.0 | 3.0 | 0.00 | 0.35 | 0.35 | 95 | 1011.6 |
| 20260906210004 | 69 | 229 | 0.0 | 4.0 | 0.01 | 0.35 | 0.35 | 94 | 1011.6 |
| 20260906205502 | 69 | 214 | 0.0 | 3.0 | 0.01 | 0.35 | 0.35 | 94 | 1011.8 |
| 20260906205000 | 69 | 223 | 1.0 | 3.0 | 0.01 | 0.35 | 0.35 | 93 | 1011.8 |
| 20260906204501 | 70 | 217 | 0.0 | 2.0 | 0.01 | 0.35 | 0.35 | 93 | 1012.1 |
| 20260906204100 | 70 | 233 | 0.0 | 2.0 | 0.01 | 0.35 | 0.35 | 93 | 1012.1 |
| 20260906203600 | 70 | 212 | 0.0 | 1.0 | 0.01 | 0.35 | 0.35 | 94 | 1012.0 |
| 20260906203100 | 70 | 198 | 0.0 | 1.0 | 0.01 | 0.35 | 0.35 | 94 | 1011.8 |
| 20260906202559 | 70 | 198 | 0.0 | 1.0 | 0.01 | 0.35 | 0.35 | 95 | 1011.8 |
| 20260906202059 | 69 | 214 | 0.0 | 2.0 | 0.01 | 0.35 | 0.35 | 95 | 1012.0 |
| 20260906201606 | 69 | 214 | 0.0 | 4.0 | 0.01 | 0.35 | 0.35 | 95 | 1011.8 |
| 20260906201100 | 69 | 169 | 1.0 | 3.0 | 0.01 | 0.35 | 0.35 | 95 | 1011.8 |
| 20260906200558 | 69 | 219 | 0.0 | 5.0 | 0.01 | 0.35 | 0.35 | 95 | 1012.1 |
| 20260906200059 | 68 | 164 | 1.0 | 5.0 | 0.00 | 0.34 | 0.34 | 95 | 1012.2 |
| 20260906195559 | 68 | 179 | 1.0 | 7.0 | 0.01 | 0.34 | 0.34 | 95 | 1012.3 |
| 20260906195101 | 68 | 101 | 2.0 | 7.0 | 0.01 | 0.34 | 0.34 | 95 | 1012.4 |
| 20260906194558 | 68 | 158 | 0.0 | 5.0 | 0.01 | 0.34 | 0.34 | 95 | 1012.6 |
| 20260906194058 | 68 | 154 | 1.0 | 5.0 | 0.01 | 0.34 | 0.34 | 95 | 1012.3 |
| 20260906193600 | 68 | 113 | 0.0 | 5.0 | 0.02 | 0.34 | 0.34 | 95 | 1012.2 |
| 20260906193058 | 68 | 212 | 0.0 | 2.0 | 0.04 | 0.34 | 0.34 | 95 | 1012.3 |
| 20260906192557 | 68 | 123 | 0.0 | 2.0 | 0.06 | 0.34 | 0.34 | 95 | 1012.3 |
| 20260906192056 | 68 | 163 | 0.0 | 2.0 | 0.06 | 0.34 | 0.34 | 95 | 1012.4 |
| 20260906191657 | 68 | 163 | 0.0 | 2.0 | 0.06 | 0.34 | 0.34 | 95 | 1012.1 |
| 20260906191058 | 68 | 165 | 0.0 | 2.0 | 0.06 | 0.34 | 0.34 | 95 | 1011.9 |
| 20260906190555 | 68 | 150 | 0.0 | 4.0 | 0.06 | 0.34 | 0.34 | 95 | 1011.8 |
| 20260906190056 | 68 | 202 | 0.0 | 5.0 | 0.06 | 0.34 | 0.34 | 95 | 1011.8 |
| 20260906185556 | 68 | 206 | 0.0 | 5.0 | 0.05 | 0.33 | 0.33 | 95 | 1011.9 |
| 20260906185055 | 68 | 124 | 1.0 | 4.0 | 0.05 | 0.33 | 0.33 | 95 | 1012.0 |
| 20260906184555 | 68 | 214 | 0.0 | 3.0 | 0.05 | 0.33 | 0.33 | 94 | 1011.9 |
| 20260906184054 | 68 | 129 | 0.0 | 7.0 | 0.05 | 0.33 | 0.33 | 94 | 1012.0 |
| 20260906183554 | 69 | 106 | 0.0 | 6.0 | 0.04 | 0.32 | 0.32 | 94 | 1012.2 |
| 20260906183054 | 69 | 113 | 0.0 | 6.0 | 0.02 | 0.30 | 0.30 | 93 | 1012.2 |
| 20260906182554 | 69 | 160 | 0.0 | 3.0 | 0.00 | 0.28 | 0.28 | 92 | 1012.2 |
| 20260906182054 | 70 | 186 | 0.0 | 3.0 | 0.00 | 0.28 | 0.28 | 92 | 1012.2 |
| 20260906181554 | 70 | 142 | 0.0 | 3.0 | 0.00 | 0.28 | 0.28 | 92 | 1012.1 |
| 20260906181053 | 71 | 172 | 0.0 | 0.0 | 0.00 | 0.28 | 0.28 | 92 | 1012.2 |
| 20260906180553 | 71 | 182 | 0.0 | 0.0 | 0.01 | 0.28 | 0.28 | 91 | 1012.3 |
| 20260906180105 | 71 | 181 | 0.0 | 1.0 | 0.04 | 0.28 | 0.28 | 91 | 1012.3 |
| 20260906175554 | 72 | 181 | 0.0 | 1.0 | 0.07 | 0.28 | 0.28 | 92 | 1012.4 |
| 20260906175053 | 72 | 82 | 0.0 | 1.0 | 0.07 | 0.28 | 0.28 | 91 | 1012.5 |
| 20260906174604 | 72 | 82 | 0.0 | 1.0 | 0.07 | 0.28 | 0.28 | 90 | 1012.4 |
| 20260906174053 | 72 | 82 | 0.0 | 0.0 | 0.07 | 0.28 | 0.28 | 89 | 1012.3 |
| 20260906173552 | 73 | 82 | 0.0 | 0.0 | 0.07 | 0.28 | 0.28 | 90 | 1012.4 |
| 20260906173052 | 73 | 82 | 0.0 | 0.0 | 0.07 | 0.28 | 0.28 | 90 | 1012.4 |
| 20260906172652 | 73 | 82 | 0.0 | 0.0 | 0.07 | 0.28 | 0.28 | 88 | 1012.4 |
| 20260906172051 | 73 | 82 | 0.0 | 0.0 | 0.07 | 0.28 | 0.28 | 87 | 1012.3 |
| 20260906171551 | 74 | 82 | 0.0 | 0.0 | 0.07 | 0.28 | 0.28 | 87 | 1012.3 |
| 20260906171051 | 74 | 82 | 0.0 | 0.0 | 0.07 | 0.28 | 0.28 | 88 | 1012.3 |
| 20260906170550 | 74 | 82 | 0.0 | 1.0 | 0.05 | 0.27 | 0.26 | 87 | 1012.3 |
| 20260906170053 | 74 | 82 | 0.0 | 2.0 | 0.03 | 0.25 | 0.24 | 82 | 1012.3 |
| 20260906165550 | 75 | 98 | 0.0 | 3.0 | 0.00 | 0.22 | 0.21 | 80 | 1012.2 |
| 20260906165049 | 75 | 99 | 1.0 | 3.0 | 0.00 | 0.22 | 0.21 | 79 | 1012.3 |
| 20260906164552 | 75 | 4 | 0.0 | 3.0 | 0.00 | 0.22 | 0.21 | 81 | 1012.2 |
| 20260906164050 | 75 | 6 | 0.0 | 2.0 | 0.00 | 0.22 | 0.21 | 79 | 1012.2 |
| 20260906163550 | 75 | 108 | 0.0 | 3.0 | 0.00 | 0.22 | 0.21 | 79 | 1012.3 |
| 20260906163050 | 76 | 74 | 0.0 | 3.0 | 0.00 | 0.22 | 0.21 | 80 | 1012.4 |
| 20260906162550 | 76 | 111 | 0.0 | 1.0 | 0.00 | 0.22 | 0.21 | 78 | 1012.5 |
| 20260906162048 | 76 | 348 | 0.0 | 3.0 | 0.00 | 0.22 | 0.21 | 81 | 1012.6 |
| 20260906161549 | 76 | 348 | 0.0 | 3.0 | 0.00 | 0.22 | 0.21 | 78 | 1012.6 |
| 20260906161048 | 77 | 160 | 0.0 | 2.0 | 0.00 | 0.22 | 0.21 | 79 | 1012.7 |
| 20260906160548 | 77 | 193 | 0.0 | 0.0 | 0.00 | 0.22 | 0.21 | 82 | 1012.7 |
| 20260906160046 | 76 | 193 | 0.0 | 0.0 | 0.00 | 0.22 | 0.21 | 85 | 1012.8 |
| 20260906155544 | 74 | 193 | 0.0 | 0.0 | 0.00 | 0.22 | 0.21 | 85 | 1012.7 |
| 20260906155045 | 73 | 301 | 0.0 | 1.0 | 0.00 | 0.22 | 0.21 | 87 | 1012.8 |
| 20260906154547 | 71 | 360 | 0.0 | 2.0 | 0.00 | 0.22 | 0.21 | 88 | 1013.0 |
| 20260906154040 | 70 | 360 | 0.0 | 2.0 | 0.00 | 0.22 | 0.21 | 88 | 1013.0 |
| 20260906153538 | 70 | 131 | 0.0 | 0.0 | 0.00 | 0.22 | 0.21 | 89 | 1013.0 |
| 20260906153038 | 69 | 131 | 0.0 | 0.0 | 0.00 | 0.22 | 0.21 | 89 | 1013.1 |
| 20260906152536 | 69 | 131 | 0.0 | 0.0 | 0.00 | 0.22 | 0.21 | 88 | 1013.2 |
| 20260906152035 | 69 | 131 | 0.0 | 0.0 | 0.00 | 0.22 | 0.21 | 89 | 1013.1 |
| 20260906151536 | 69 | 131 | 0.0 | 0.0 | 0.00 | 0.22 | 0.21 | 91 | 1013.1 |
| 20260906151032 | 68 | 131 | 0.0 | 0.0 | 0.00 | 0.22 | 0.21 | 93 | 1013.0 |
| 20260906150532 | 67 | 131 | 0.0 | 0.0 | 0.01 | 0.22 | 0.21 | 95 | 1013.0 |
| 20260906150039 | 66 | 131 | 0.0 | 0.0 | 0.03 | 0.22 | 0.21 | 95 | 1012.9 |
| 20260906145528 | 65 | 214 | 0.0 | 0.0 | 0.05 | 0.22 | 0.21 | 96 | 1012.8 |
| 20260906145029 | 64 | 116 | 0.0 | 0.0 | 0.06 | 0.22 | 0.21 | 95 | 1012.9 |
| 20260906144529 | 64 | 142 | 0.0 | 0.0 | 0.09 | 0.22 | 0.21 | 96 | 1012.9 |
| 20260906144030 | 63 | 169 | 0.0 | 0.0 | 0.10 | 0.22 | 0.21 | 96 | 1012.8 |
| 20260906143528 | 63 | 231 | 0.0 | 0.0 | 0.12 | 0.22 | 0.21 | 96 | 1012.7 |
| 20260906143028 | 62 | 231 | 0.0 | 0.0 | 0.13 | 0.22 | 0.21 | 96 | 1012.7 |
| 20260906142533 | 62 | 231 | 0.0 | 2.0 | 0.15 | 0.22 | 0.21 | 96 | 1012.7 |
| 20260906142027 | 62 | 231 | 0.0 | 2.0 | 0.16 | 0.22 | 0.21 | 96 | 1012.8 |
| 20260906141526 | 62 | 245 | 0.0 | 1.0 | 0.18 | 0.22 | 0.21 | 95 | 1012.6 |
| 20260906141026 | 62 | 100 | 0.0 | 1.0 | 0.19 | 0.22 | 0.21 | 95 | 1012.4 |
| 20260906140526 | 62 | 3 | 0.0 | 0.0 | 0.18 | 0.21 | 0.20 | 95 | 1012.9 |
| 20260906140033 | 62 | 3 | 0.0 | 0.0 | 0.17 | 0.18 | 0.17 | 94 | 1012.8 |
| 20260906135525 | 62 | 22 | 0.0 | 0.0 | 0.16 | 0.17 | 0.16 | 94 | 1012.9 |
| 20260906135025 | 62 | 330 | 0.0 | 0.0 | 0.14 | 0.15 | 0.14 | 94 | 1013.2 |
| 20260906134525 | 62 | 330 | 0.0 | 0.0 | 0.12 | 0.13 | 0.12 | 94 | 1013.3 |
| 20260906134025 | 62 | 330 | 0.0 | 0.0 | 0.10 | 0.11 | 0.10 | 94 | 1013.3 |
| 20260906133524 | 62 | 330 | 0.0 | 0.0 | 0.09 | 0.10 | 0.09 | 94 | 1013.4 |
| 20260906133026 | 63 | 354 | 0.0 | 0.0 | 0.07 | 0.08 | 0.07 | 94 | 1013.5 |
| 20260906132524 | 63 | 354 | 0.0 | 0.0 | 0.06 | 0.07 | 0.06 | 94 | 1013.5 |
| 20260906132023 | 63 | 354 | 0.0 | 2.0 | 0.05 | 0.06 | 0.05 | 93 | 1013.5 |
| 20260906131524 | 63 | 354 | 0.0 | 2.0 | 0.03 | 0.04 | 0.03 | 93 | 1013.6 |
| 20260906131021 | 63 | 358 | 0.0 | 2.0 | 0.02 | 0.03 | 0.02 | 93 | 1013.5 |
| 20260906130522 | 64 | 325 | 0.0 | 2.0 | 0.02 | 0.03 | 0.02 | 94 | 1013.6 |
| 20260906130033 | 64 | 333 | 0.0 | 6.0 | 0.00 | 0.01 | 0.00 | 95 | 1013.4 |
| 20260906125523 | 64 | 7 | 2.0 | 11.0 | 0.00 | 0.01 | 0.00 | 96 | 1013.4 |
| 20260906125021 | 64 | 348 | 3.0 | 11.0 | 0.00 | 0.01 | 0.00 | 95 | 1013.2 |
| 20260906124518 | 64 | 333 | 0.0 | 2.0 | 0.00 | 0.01 | 0.00 | 95 | 1012.9 |
| 20260906124018 | 64 | 113 | 0.0 | 0.0 | 0.00 | 0.01 | 0.00 | 95 | 1012.6 |
| 20260906123516 | 64 | 112 | 0.0 | 0.0 | 0.00 | 0.01 | 0.00 | 96 | 1012.5 |
| 20260906123028 | 64 | 113 | 0.0 | 0.0 | 0.00 | 0.01 | 0.00 | 95 | 1012.4 |
| 20260906122517 | 64 | 112 | 0.0 | 0.0 | 0.00 | 0.01 | 0.00 | 95 | 1012.3 |
| 20260906122013 | 64 | 112 | 0.0 | 0.0 | 0.00 | 0.01 | 0.00 | 95 | 1012.2 |
| 20260906121513 | 65 | 113 | 0.0 | 0.0 | 0.00 | 0.01 | 0.00 | 95 | 1012.1 |
| 20260906121012 | 65 | 112 | 0.0 | 0.0 | 0.00 | 0.01 | 0.00 | 95 | 1012.3 |
| 20260906120511 | 65 | 113 | 0.0 | 0.0 | 0.00 | 0.01 | 0.00 | 96 | 1012.1 |
| 20260906120011 | 65 | 113 | 0.0 | 0.0 | 0.00 | 0.01 | 0.00 | 96 | 1012.2 |
| 20260906115511 | 65 | 113 | 0.0 | 0.0 | 0.00 | 0.01 | 0.00 | 96 | 1012.0 |
| 20260906115009 | 65 | 113 | 0.0 | 1.0 | 0.00 | 0.01 | 0.00 | 96 | 1011.8 |
| 20260906114510 | 64 | 128 | 0.0 | 1.0 | 0.00 | 0.01 | 0.00 | 96 | 1011.6 |
| 20260906114007 | 64 | 125 | 0.0 | 1.0 | 0.00 | 0.01 | 0.00 | 96 | 1011.7 |
| 20260906113506 | 64 | 131 | 0.0 | 0.0 | 0.00 | 0.01 | 0.00 | 96 | 1011.7 |
| 20260906113011 | 64 | 131 | 0.0 | 0.0 | 0.00 | 0.01 | 0.00 | 96 | 1011.8 |
| 20260906112506 | 64 | 132 | 0.0 | 0.0 | 0.00 | 0.01 | 0.00 | 96 | 1011.9 |
| 20260906112006 | 64 | 131 | 0.0 | 0.0 | 0.00 | 0.01 | 0.00 | 96 | 1011.7 |
| 20260906111505 | 64 | 131 | 0.0 | 1.0 | 0.00 | 0.01 | 0.00 | 96 | 1011.8 |
| 20260906111005 | 64 | 131 | 0.0 | 1.0 | 0.00 | 0.01 | 0.00 | 96 | 1011.7 |
| 20260906110505 | 64 | 131 | 0.0 | 2.0 | 0.00 | 0.01 | 0.00 | 96 | 1011.5 |
| 20260906110104 | 64 | 91 | 0.0 | 2.0 | 0.00 | 0.01 | 0.00 | 96 | 1011.4 |
| 20260906105504 | 64 | 99 | 0.0 | 2.0 | 0.00 | 0.01 | 0.00 | 96 | 1011.4 |
| 20260906105008 | 64 | 106 | 0.0 | 1.0 | 0.00 | 0.01 | 0.00 | 96 | 1011.3 |
| 20260906104507 | 64 | 106 | 0.0 | 1.0 | 0.00 | 0.01 | 0.00 | 95 | 1011.4 |
| 20260906104004 | 64 | 106 | 0.0 | 1.0 | 0.00 | 0.01 | 0.00 | 95 | 1011.5 |
| 20260906103504 | 63 | 89 | 0.0 | 2.0 | 0.00 | 0.01 | 0.00 | 95 | 1011.5 |
| 20260906103011 | 63 | 89 | 0.0 | 2.0 | 0.00 | 0.01 | 0.00 | 96 | 1011.5 |
| 20260906102504 | 62 | 82 | 0.0 | 0.0 | 0.00 | 0.01 | 0.00 | 96 | 1011.3 |
| 20260906102006 | 62 | 82 | 0.0 | 0.0 | 0.00 | 0.01 | 0.00 | 96 | 1011.4 |
| 20260906101504 | 62 | 82 | 0.0 | 1.0 | 0.00 | 0.01 | 0.00 | 96 | 1011.4 |
| 20260906101003 | 62 | 82 | 0.0 | 1.0 | 0.00 | 0.01 | 0.00 | 96 | 1011.4 |
| 20260906100503 | 62 | 349 | 0.0 | 0.0 | 0.00 | 0.01 | 0.00 | 96 | 1011.3 |
| 20260906100007 | 62 | 349 | 0.0 | 0.0 | 0.00 | 0.01 | 0.00 | 96 | 1011.2 |
| 20260906095502 | 62 | 349 | 0.0 | 0.0 | 0.00 | 0.01 | 0.00 | 96 | 1011.2 |
| 20260906095002 | 62 | 349 | 0.0 | 1.0 | 0.00 | 0.01 | 0.00 | 96 | 1011.0 |
| 20260906094502 | 62 | 349 | 0.0 | 2.0 | 0.00 | 0.01 | 0.00 | 96 | 1011.0 |
| 20260906094002 | 62 | 349 | 1.0 | 2.0 | 0.00 | 0.01 | 0.00 | 96 | 1010.9 |
| 20260906093503 | 62 | 166 | 0.0 | 1.0 | 0.00 | 0.01 | 0.00 | 96 | 1011.0 |
| 20260906093003 | 62 | 166 | 0.0 | 1.0 | 0.00 | 0.01 | 0.00 | 96 | 1011.0 |
| 20260906092502 | 62 | 166 | 0.0 | 0.0 | 0.00 | 0.01 | 0.00 | 96 | 1011.0 |
| 20260906092100 | 62 | 166 | 0.0 | 0.0 | 0.00 | 0.01 | 0.00 | 96 | 1010.9 |
| 20260906091600 | 62 | 166 | 0.0 | 0.0 | 0.00 | 0.01 | 0.00 | 96 | 1010.9 |
| 20260906091100 | 62 | 166 | 0.0 | 0.0 | 0.00 | 0.01 | 0.00 | 96 | 1010.9 |
| 20260906090559 | 63 | 166 | 0.0 | 0.0 | 0.00 | 0.01 | 0.00 | 96 | 1011.0 |
| 20260906090100 | 63 | 166 | 0.0 | 0.0 | 0.00 | 0.01 | 0.00 | 96 | 1011.0 |
| 20260906085559 | 63 | 166 | 0.0 | 0.0 | 0.00 | 0.01 | 0.00 | 96 | 1011.0 |
| 20260906085059 | 63 | 166 | 0.0 | 0.0 | 0.00 | 0.01 | 0.00 | 96 | 1011.1 |
| 20260906084602 | 63 | 166 | 0.0 | 1.0 | 0.00 | 0.01 | 0.00 | 96 | 1011.0 |
| 20260906084102 | 63 | 133 | 0.0 | 2.0 | 0.00 | 0.01 | 0.00 | 96 | 1010.9 |
| 20260906083603 | 62 | 133 | 1.0 | 2.0 | 0.00 | 0.01 | 0.00 | 96 | 1010.8 |
| 20260906083100 | 62 | 148 | 0.0 | 0.0 | 0.00 | 0.01 | 0.00 | 96 | 1010.8 |
| 20260906082558 | 62 | 148 | 0.0 | 0.0 | 0.00 | 0.01 | 0.00 | 96 | 1010.9 |
| 20260906082058 | 62 | 148 | 0.0 | 0.0 | 0.00 | 0.01 | 0.00 | 96 | 1010.8 |
| 20260906081559 | 62 | 148 | 0.0 | 0.0 | 0.00 | 0.01 | 0.00 | 96 | 1010.7 |
| 20260906081057 | 63 | 148 | 0.0 | 0.0 | 0.00 | 0.01 | 0.00 | 96 | 1010.7 |
| 20260906080600 | 63 | 148 | 0.0 | 0.0 | 0.00 | 0.01 | 0.00 | 96 | 1010.8 |
| 20260906080058 | 63 | 148 | 0.0 | 2.0 | 0.00 | 0.01 | 0.00 | 95 | 1010.7 |
| 20260906075559 | 62 | 148 | 0.0 | 2.0 | 0.00 | 0.01 | 0.00 | 95 | 1010.8 |
| 20260906075057 | 62 | 138 | 0.0 | 0.0 | 0.00 | 0.01 | 0.00 | 96 | 1010.9 |
| 20260906074557 | 62 | 138 | 0.0 | 0.0 | 0.00 | 0.01 | 0.00 | 96 | 1010.9 |
| 20260906074056 | 62 | 138 | 0.0 | 0.0 | 0.00 | 0.01 | 0.00 | 96 | 1011.0 |
| 20260906073556 | 62 | 139 | 0.0 | 0.0 | 0.00 | 0.01 | 0.00 | 96 | 1011.0 |
| 20260906073055 | 62 | 138 | 0.0 | 0.0 | 0.00 | 0.01 | 0.00 | 96 | 1011.0 |
| 20260906072555 | 62 | 138 | 0.0 | 0.0 | 0.00 | 0.01 | 0.00 | 96 | 1011.0 |
| 20260906072057 | 62 | 138 | 0.0 | 0.0 | 0.00 | 0.01 | 0.00 | 96 | 1011.0 |
| 20260906071555 | 63 | 139 | 0.0 | 0.0 | 0.00 | 0.01 | 0.00 | 96 | 1011.0 |
| 20260906071054 | 63 | 138 | 0.0 | 0.0 | 0.00 | 0.01 | 0.00 | 96 | 1010.9 |
| 20260906070556 | 62 | 138 | 0.0 | 0.0 | 0.00 | 0.01 | 0.00 | 96 | 1010.8 |
| 20260906070054 | 62 | 138 | 0.0 | 0.0 | 0.00 | 0.01 | 0.00 | 95 | 1010.8 |
| 20260906065554 | 62 | 138 | 0.0 | 0.0 | 0.00 | 0.01 | 0.00 | 96 | 1010.9 |
| 20260906065053 | 62 | 138 | 0.0 | 0.0 | 0.00 | 0.01 | 0.00 | 95 | 1011.1 |
| 20260906064551 | 62 | 138 | 0.0 | 0.0 | 0.00 | 0.01 | 0.00 | 95 | 1011.3 |
| 20260906064051 | 62 | 138 | 0.0 | 0.0 | 0.00 | 0.01 | 0.00 | 95 | 1011.4 |
| 20260906063550 | 62 | 138 | 0.0 | 0.0 | 0.00 | 0.01 | 0.00 | 95 | 1011.6 |
| 20260906063049 | 63 | 138 | 0.0 | 0.0 | 0.00 | 0.01 | 0.00 | 95 | 1011.6 |
| 20260906062549 | 63 | 138 | 0.0 | 0.0 | 0.00 | 0.01 | 0.00 | 95 | 1011.6 |
| 20260906062047 | 63 | 139 | 0.0 | 0.0 | 0.00 | 0.01 | 0.00 | 95 | 1011.9 |
| 20260906061552 | 63 | 138 | 0.0 | 0.0 | 0.00 | 0.01 | 0.00 | 95 | 1011.9 |
| 20260906061047 | 63 | 138 | 0.0 | 0.0 | 0.00 | 0.01 | 0.00 | 95 | 1011.8 |
| 20260906060547 | 63 | 138 | 0.0 | 0.0 | 0.00 | 0.01 | 0.00 | 95 | 1011.9 |
| 20260906060047 | 63 | 138 | 0.0 | 0.0 | 0.00 | 0.01 | 0.00 | 95 | 1012.0 |
| 20260906055546 | 63 | 138 | 0.0 | 0.0 | 0.00 | 0.01 | 0.00 | 95 | 1012.0 |
| 20260906055047 | 63 | 138 | 0.0 | 0.0 | 0.00 | 0.01 | 0.00 | 95 | 1012.2 |
| 20260906054601 | 63 | 138 | 0.0 | 0.0 | 0.00 | 0.01 | 0.00 | 95 | 1012.1 |
| 20260906054045 | 63 | 139 | 0.0 | 0.0 | 0.00 | 0.01 | 0.00 | 94 | 1012.1 |
| 20260906053544 | 63 | 138 | 0.0 | 0.0 | 0.00 | 0.01 | 0.00 | 94 | 1012.1 |
| 20260906053044 | 63 | 139 | 0.0 | 0.0 | 0.00 | 0.01 | 0.00 | 93 | 1011.9 |
| 20260906052544 | 63 | 138 | 0.0 | 0.0 | 0.00 | 0.01 | 0.00 | 93 | 1012.0 |
| 20260906052042 | 64 | 138 | 0.0 | 0.0 | 0.00 | 0.01 | 0.00 | 94 | 1012.1 |
| 20260906051542 | 64 | 138 | 0.0 | 0.0 | 0.00 | 0.01 | 0.00 | 94 | 1011.9 |
| 20260906051043 | 64 | 138 | 0.0 | 1.0 | 0.00 | 0.01 | 0.00 | 94 | 1012.0 |
| 20260906050543 | 64 | 138 | 0.0 | 1.0 | 0.00 | 0.01 | 0.00 | 94 | 1012.1 |
| 20260906050040 | 64 | 138 | 0.0 | 1.0 | 0.00 | 0.01 | 0.00 | 94 | 1012.1 |
| 20260906045539 | 64 | 139 | 0.0 | 1.0 | 0.00 | 0.01 | 0.00 | 94 | 1012.1 |
| 20260906045038 | 64 | 153 | 0.0 | 0.0 | 0.00 | 0.01 | 0.00 | 94 | 1012.3 |
| 20260906044538 | 64 | 153 | 0.0 | 0.0 | 0.00 | 0.01 | 0.00 | 94 | 1012.3 |
| 20260906044039 | 64 | 153 | 0.0 | 0.0 | 0.00 | 0.01 | 0.00 | 94 | 1012.3 |
| 20260906043538 | 63 | 153 | 0.0 | 0.0 | 0.00 | 0.01 | 0.00 | 94 | 1012.2 |
| 20260906043037 | 63 | 153 | 0.0 | 0.0 | 0.00 | 0.01 | 0.00 | 93 | 1012.2 |
| 20260906042537 | 63 | 153 | 0.0 | 0.0 | 0.00 | 0.01 | 0.00 | 93 | 1012.3 |
| 20260906042035 | 63 | 153 | 0.0 | 0.0 | 0.00 | 0.01 | 0.00 | 93 | 1012.4 |
| 20260906041535 | 63 | 153 | 0.0 | 0.0 | 0.00 | 0.01 | 0.00 | 93 | 1012.4 |
| 20260906041035 | 64 | 153 | 0.0 | 0.0 | 0.00 | 0.01 | 0.00 | 92 | 1012.4 |
| 20260906040533 | 64 | 153 | 0.0 | 0.0 | 0.00 | 0.01 | 0.00 | 92 | 1012.4 |
| 20260906040044 | 64 | 153 | 0.0 | 0.0 | 0.00 | 0.01 | 0.00 | 92 | 1012.4 |
| 20260906035532 | 64 | 153 | 0.0 | 0.0 | 0.00 | 0.01 | 0.01 | 92 | 1012.4 |
| 20260906035032 | 64 | 153 | 0.0 | 0.0 | 0.00 | 0.01 | 0.01 | 91 | 1012.5 |
| 20260906034546 | 64 | 153 | 0.0 | 0.0 | 0.00 | 0.01 | 0.01 | 91 | 1012.4 |
| 20260906034031 | 65 | 153 | 0.0 | 0.0 | 0.00 | 0.01 | 0.01 | 91 | 1012.5 |
| 20260906033532 | 65 | 153 | 0.0 | 1.0 | 0.00 | 0.01 | 0.01 | 90 | 1012.5 |
| 20260906033031 | 65 | 153 | 0.0 | 1.0 | 0.00 | 0.01 | 0.01 | 90 | 1012.4 |
| 20260906032530 | 65 | 153 | 0.0 | 0.0 | 0.00 | 0.01 | 0.01 | 90 | 1012.6 |
| 20260906032034 | 66 | 153 | 0.0 | 1.0 | 0.00 | 0.01 | 0.01 | 89 | 1012.6 |
| 20260906031558 | 66 | 140 | 0.0 | 1.0 | 0.00 | 0.01 | 0.01 | 89 | 1012.4 |
| 20260906031032 | 66 | 157 | 0.0 | 0.0 | 0.00 | 0.01 | 0.01 | 88 | 1012.3 |
| 20260906030530 | 66 | 157 | 0.0 | 1.0 | 0.00 | 0.01 | 0.01 | 87 | 1012.4 |
| 20260906030032 | 67 | 139 | 0.0 | 1.0 | 0.00 | 0.01 | 0.01 | 87 | 1012.5 |
| 20260906025531 | 67 | 139 | 0.0 | 0.0 | 0.00 | 0.01 | 0.01 | 86 | 1012.4 |
| 20260906025032 | 67 | 139 | 0.0 | 2.0 | 0.00 | 0.01 | 0.01 | 86 | 1012.5 |
| 20260906024550 | 67 | 139 | 0.0 | 2.0 | 0.00 | 0.01 | 0.01 | 87 | 1012.4 |
| 20260906024031 | 67 | 156 | 0.0 | 1.0 | 0.00 | 0.01 | 0.01 | 87 | 1012.4 |
| 20260906023530 | 67 | 171 | 0.0 | 1.0 | 0.00 | 0.01 | 0.01 | 87 | 1012.5 |
| 20260906023027 | 66 | 166 | 0.0 | 1.0 | 0.00 | 0.01 | 0.01 | 87 | 1012.4 |
| 20260906022526 | 66 | 166 | 0.0 | 1.0 | 0.00 | 0.01 | 0.01 | 86 | 1012.3 |
| 20260906022025 | 67 | 162 | 0.0 | 1.0 | 0.00 | 0.01 | 0.01 | 86 | 1012.2 |
| 20260906021524 | 67 | 207 | 0.0 | 0.0 | 0.00 | 0.01 | 0.01 | 84 | 1012.2 |
| 20260906021024 | 68 | 207 | 0.0 | 0.0 | 0.00 | 0.01 | 0.01 | 83 | 1012.1 |
| 20260906020527 | 68 | 207 | 0.0 | 0.0 | 0.00 | 0.01 | 0.01 | 83 | 1012.2 |
| 20260906020024 | 68 | 207 | 0.0 | 0.0 | 0.00 | 0.01 | 0.01 | 82 | 1012.1 |
| 20260906015525 | 69 | 207 | 0.0 | 0.0 | 0.00 | 0.01 | 0.01 | 81 | 1012.2 |
| 20260906015023 | 69 | 207 | 0.0 | 0.0 | 0.00 | 0.01 | 0.01 | 80 | 1012.2 |
| 20260906014524 | 69 | 207 | 0.0 | 0.0 | 0.00 | 0.01 | 0.01 | 80 | 1012.1 |
| 20260906014023 | 69 | 207 | 0.0 | 1.0 | 0.00 | 0.01 | 0.01 | 79 | 1012.0 |
| 20260906013523 | 70 | 207 | 0.0 | 1.0 | 0.00 | 0.01 | 0.01 | 79 | 1012.0 |
| 20260906013023 | 70 | 207 | 0.0 | 1.0 | 0.00 | 0.01 | 0.01 | 77 | 1012.1 |
| 20260906012523 | 71 | 349 | 0.0 | 1.0 | 0.00 | 0.01 | 0.01 | 76 | 1011.9 |
| 20260906012022 | 71 | 349 | 0.0 | 1.0 | 0.00 | 0.01 | 0.01 | 75 | 1011.8 |
| 20260906011522 | 72 | 349 | 0.0 | 3.0 | 0.00 | 0.01 | 0.01 | 74 | 1011.9 |
| 20260906011021 | 72 | 349 | 0.0 | 3.0 | 0.00 | 0.01 | 0.01 | 74 | 1011.8 |
| 20260906010522 | 72 | 343 | 0.0 | 2.0 | 0.00 | 0.01 | 0.01 | 73 | 1011.8 |
| 20260906010040 | 72 | 326 | 0.0 | 5.0 | 0.00 | 0.01 | 0.01 | 73 | 1011.5 |
| 20260906005521 | 72 | 11 | 1.0 | 5.0 | 0.00 | 0.01 | 0.01 | 73 | 1011.4 |
| 20260906005022 | 73 | 336 | 1.0 | 10.0 | 0.00 | 0.01 | 0.01 | 72 | 1011.4 |
| 20260906004522 | 73 | 11 | 1.0 | 10.0 | 0.00 | 0.01 | 0.01 | 72 | 1011.5 |
| 20260906004022 | 73 | 326 | 1.0 | 5.0 | 0.00 | 0.01 | 0.01 | 71 | 1011.3 |
| 20260906003521 | 73 | 320 | 1.0 | 7.0 | 0.00 | 0.01 | 0.01 | 71 | 1011.3 |
| 20260906003021 | 73 | 311 | 1.0 | 4.0 | 0.00 | 0.01 | 0.01 | 71 | 1011.4 |
| 20260906002520 | 73 | 18 | 0.0 | 3.0 | 0.00 | 0.01 | 0.01 | 70 | 1011.4 |
| 20260906002024 | 73 | 341 | 0.0 | 4.0 | 0.00 | 0.01 | 0.01 | 70 | 1011.3 |
| 20260906001524 | 73 | 354 | 1.0 | 4.0 | 0.00 | 0.01 | 0.01 | 70 | 1011.2 |
| 20260906001019 | 73 | 343 | 1.0 | 4.0 | 0.00 | 0.01 | 0.01 | 70 | 1011.2 |
| 20260906000519 | 73 | 345 | 2.0 | 3.0 | 0.00 | 0.01 | 0.01 | 70 | 1011.1 |
| 20260906000021 | 73 | 351 | 0.0 | 2.0 | 0.00 | 0.01 | 0.01 | 70 | 1011.0 |
| 20260905235519 | 73 | 355 | 0.0 | 0.0 | 0.00 | 0.01 | 0.01 | 70 | 1010.9 |
| 20260905235021 | 74 | 355 | 0.0 | 0.0 | 0.00 | 0.01 | 0.01 | 69 | 1010.9 |
| 20260905234518 | 74 | 355 | 0.0 | 0.0 | 0.00 | 0.01 | 0.01 | 68 | 1011.0 |
| 20260905234019 | 75 | 355 | 0.0 | 0.0 | 0.00 | 0.01 | 0.01 | 67 | 1010.9 |
| 20260905233519 | 75 | 355 | 0.0 | 1.0 | 0.00 | 0.01 | 0.01 | 67 | 1010.9 |
| 20260905233020 | 76 | 355 | 0.0 | 1.0 | 0.00 | 0.01 | 0.01 | 67 | 1010.8 |
| 20260905232518 | 76 | 355 | 0.0 | 3.0 | 0.00 | 0.01 | 0.01 | 67 | 1010.9 |
| 20260905232018 | 76 | 354 | 0.0 | 2.0 | 0.00 | 0.01 | 0.01 | 66 | 1010.9 |
| 20260905231517 | 76 | 353 | 0.0 | 3.0 | 0.00 | 0.01 | 0.01 | 65 | 1010.8 |
| 20260905231019 | 77 | 360 | 0.0 | 3.0 | 0.00 | 0.01 | 0.01 | 64 | 1010.8 |
| 20260905230517 | 77 | 360 | 0.0 | 4.0 | 0.00 | 0.01 | 0.01 | 63 | 1010.8 |
| 20260905230030 | 77 | 340 | 1.0 | 4.0 | 0.00 | 0.01 | 0.01 | 63 | 1010.9 |